Powrót do katalogu

STARLINK-2431

AktywnyŁącznośćVLEO
NORAD 47839·PAYLOAD·🇺🇸 United States

Wystrzelony Mar 11, 2021 z Cape Canaveral Space Force Station

Loading…

Następne Przeloty (najbliższe 24 godziny)

TLE

ŚwieżeSource: CelesTrak SupGP

Epoka: Sep 15, 2026, 02:18 UTC

1 47839C 21018BE  26258.09631944 -.00033387  00000+0 -10738-2 0  2586
2 47839  53.1596  55.5075 0001151  70.8819 199.4285 15.31714704    12

Śledź STARLINK-2431 w czasie rzeczywistym z AllMySat

Download on the App Store